User: anonymous   Login
Location: Cussy
(47.0410°N, 4.6412°E)
Time: 22:42:02
(UTC+00:00)
Language:

SAR-Lupe-1 - Orbit

View from above orbital plane
View from above orbital plane
View from above satellite
View from above satellite

Ground track
Ground track

The orbit data is extracted from the following two-line orbital elements,

1 29658U 06060A   21057.76834500 0.00000700  00000-0  26042-4 0    08
2 29658  98.1600 253.5976 0003005 339.9220  20.0778 15.27531602    05
Epoch (UTC): 26 February 2021 18:26:25
Eccentricity: 0.0003005
inclination: 98.1600°
perigee height: 481 km
apogee height: 485 km
right ascension of ascending node: 253.5976°
argument of perigee: 339.9220°
revolutions per day: 15.27531602
mean anomaly at epoch: 20.0778°
orbit number at epoch: 0

The dashed part of the orbit path shows where the satellite is in the earth's shadow,  

DLR